Regional Weather Roundup
Issued by NWS

Home | Current Version | Previous Version | Graphics & Text | Print | Product List | Glossary On
Versions: 1 2 3 4 5 6 7 8 9 10 11 12 13 14 15 16 17 18 19 20 21 22 23 24 25 26 27
000
ASUS45 KCYS 250810
RWRWY

WYOMING REGIONAL WEATHER ROUNDUP
NATIONAL WEATHER SERVICE CHEYENNE WY
200 AM MDT SUN JUN 25 2017

NOTE:  "FAIR" INDICATES FEW OR NO CLOUDS BELOW 12,000 FEET
WITH NO SIGNIFICANT WEATHER AND/OR OBSTRUCTIONS TO VISIBILITY.

WYZ001-250900-
YELLOWSTONE NATIONAL PARK

CITY           SKY/WX    TMP DP  RH WIND       PRES   REMARKS
LK YELLOWSTONE   N/A     37  32  82 NW3       30.48S
W YELLOWSTONE  NOT AVBL

$$
WYZ002>013-054>058-071-098>099-250900-
NORTHERN WYOMING

CITY           SKY/WX    TMP DP  RH WIND       PRES   REMARKS
JACKSON        FAIR      46  37  71 N10       30.37S
CODY           FAIR      50  34  54 S7        30.37F
GREYBULL       MOCLDY    63  32  31 S5        30.30R
WORLAND        MOCLDY    62  39  42 S3        30.31F
SHERIDAN       FAIR      44  39  82 N3        30.34F
BUFFALO        MOCLDY    54  38  54 S5        30.37F
GILLETTE       FAIR      39  33  79 S3        30.36F
NEWCASTLE      FAIR      55  28  35 S6        30.38S

$$
WYZ014>020-022>026-101>103-250900-
CENTRAL WYOMING

CITY           SKY/WX    TMP DP  RH WIND       PRES   REMARKS
BIG PINEY      FAIR      42  34  73 NW3       30.40R
PINEDALE       FAIR      43  36  75 NW3       30.40S
DUBOIS         FAIR      46  32  57 CALM      30.45R
LANDER         FAIR      52  36  54 NW7       30.39R
RIVERTON       FAIR      56  35  45 E8        30.39S
CASPER         FAIR      50  35  56 NE10      30.38F
DOUGLAS        MOCLDY    55  31  39 E8        30.41R

$$
WYZ021-027>030-104>119-250900-
SOUTHERN WYOMING

CITY           SKY/WX    TMP DP  RH WIND       PRES   REMARKS
EVANSTON       FAIR      56  36  47 SE6       30.38S
KEMMERER         N/A     55  32  41 N13G24    30.40S
FORT BRIDGER   FAIR      54  34  47 W7        30.40S
ROCK SPRINGS   FAIR      56  29  35 NE17      30.36
DIXON          FAIR      53  30  41 E6        30.34S
RAWLINS        FAIR      53  32  44 NE14      30.38
SARATOGA       FAIR      46  37  71 CALM      30.37S
LARAMIE        FAIR      51  39  63 SE13      30.40F
CHEYENNE       CLOUDY    53  38  56 CALM      30.40F
TORRINGTON     CLOUDY    60  30  32 E17       30.35R
PINE BLUFFS    FAIR      48  43  81 CALM      30.37F

$$




USA.gov is the U.S. government's official web portal to all federal, state and local government web resources and services.